Weather History for Plymouth, NH

Change the Weather History Date:

Wednesday, October 16, 2013

  Actual Average (KLCI) Record (KLCI)
Temperature  
Mean Temperature 54 °F -  
Max Temperature 60 °F 59 °F 70 °F (1990)
Min Temperature 47 °F 39 °F 32 °F (2006)
Degree Days  
Heating Degree Days 12    
Growing Degree Days 4 (Base 50)    
Moisture  
Dew Point 49 °F    
Average Humidity 81    
Maximum Humidity 96    
Minimum Humidity 64    
Precipitation  
Precipitation 0.00 in - - ()
Sea Level Pressure  
Sea Level Pressure 30.05 in    
Wind  
Wind Speed 2 mph (East)    
Max Wind Speed 8 mph    
Max Gust Speed -    
Visibility 10 miles    
Events      
Averages and records for this station are not official NWS values.
T = Trace of Precipitation, MM = Missing Value Source: NWS Daily Summary

Daily Weather History Graph

Daily Weather History Graph

Search for Another Location

Airport:

Trip Planner

Search our weather history database for the weather conditions in past years. The results will help you decide how hot, cold, wet, or windy it might be!

Date:

Astronomy

Oct. 16, 2013 Rise Set
Actual Time 7:02 AM EDT 6:01 PM EDT
Civil Twilight 6:33 AM EDT 6:30 PM EDT
Nautical Twilight 6:00 AM EDT 7:03 PM EDT
Astronomical Twilight 5:27 AM EDT 7:36 PM EDT
Moon 4:42 PM EDT (10/16) 4:23 AM EDT (10/16)
Length of Visible Light 11h 56m
Length of Day
10h 58m
Waxing Gibbous, 94% of the Moon is Illuminated
Oct 16
Waxing Gibbous
Oct 18
Full
Oct 26
Last Quarter
Nov 3
New
Nov 10
First Quarter

Hourly Weather History & Observations

Time (EDT) Temp. Dew Point Humidity Pressure Visibility Wind Dir Wind Speed Gust Speed Precip Events Conditions
12:15 AM 55.8 °F 51.8 °F 87% 30.17 in 10.0 mi Calm Calm - N/A   Overcast
12:35 AM 56.1 °F 51.8 °F 85% 30.17 in 10.0 mi ENE 3.5 mph - N/A   Overcast
12:55 AM 56.3 °F 51.3 °F 83% 30.17 in 10.0 mi Calm Calm - N/A   Overcast
1:15 AM 56.3 °F 51.4 °F 84% 30.17 in 10.0 mi East 3.5 mph - N/A   Overcast
1:35 AM 55.9 °F 50.4 °F 82% 30.16 in 10.0 mi Calm Calm - N/A   Overcast
1:55 AM 55.6 °F 51.4 °F 86% 30.16 in 10.0 mi Calm Calm - N/A   Overcast
2:15 AM 55.4 °F 51.3 °F 86% 30.16 in 10.0 mi Calm Calm - N/A   Overcast
2:35 AM 55.4 °F 49.6 °F 81% 30.16 in 10.0 mi Calm Calm - N/A   Overcast
2:55 AM 55.4 °F 49.1 °F 79% 30.15 in 10.0 mi Calm Calm - N/A   Overcast
3:15 AM 54.9 °F 49.5 °F 82% 30.15 in 10.0 mi Calm Calm - N/A   Overcast
3:35 AM 54.3 °F 50.2 °F 86% 30.15 in 10.0 mi Calm Calm - N/A   Overcast
3:55 AM 54.5 °F 49.8 °F 84% 30.15 in 10.0 mi Calm Calm - N/A   Overcast
4:15 AM 54.5 °F 49.8 °F 84% 30.15 in 10.0 mi Calm Calm - N/A   Overcast
4:35 AM 54.0 °F 50.0 °F 86% 30.15 in 10.0 mi Calm Calm - N/A   Overcast
4:55 AM 54.5 °F 50.0 °F 85% 30.14 in 10.0 mi Calm Calm - N/A   Overcast
5:15 AM 54.0 °F 50.0 °F 86% 30.14 in 10.0 mi Calm Calm - N/A   Overcast
5:35 AM 53.6 °F 49.8 °F 87% 30.13 in 10.0 mi Calm Calm - N/A   Overcast
5:55 AM 53.8 °F 48.9 °F 84% 30.14 in 10.0 mi Calm Calm - N/A   Overcast
6:15 AM 53.6 °F 48.9 °F 84% 30.14 in 10.0 mi Calm Calm - N/A   Overcast
6:35 AM 54.7 °F 46.0 °F 73% 30.13 in 10.0 mi Calm Calm - N/A   Overcast
6:55 AM 53.6 °F 48.6 °F 83% 30.13 in 10.0 mi Calm Calm - N/A   Overcast
7:15 AM 53.6 °F 49.1 °F 85% 30.12 in 10.0 mi Calm Calm - N/A   Overcast
7:35 AM 53.6 °F 49.1 °F 85% 30.13 in 10.0 mi Calm Calm - N/A   Overcast
7:55 AM 54.0 °F 47.3 °F 78% 30.12 in 10.0 mi Calm Calm - N/A   Overcast
8:15 AM 54.0 °F 47.3 °F 78% 30.12 in 10.0 mi Calm Calm - N/A   Overcast
8:35 AM 55.4 °F 47.3 °F 74% 30.12 in 10.0 mi Calm Calm - N/A   Overcast
8:55 AM 55.9 °F 48.7 °F 77% 30.12 in 10.0 mi ESE 3.5 mph - N/A   Overcast
9:15 AM 55.8 °F 49.1 °F 78% 30.11 in 10.0 mi SE 3.5 mph - N/A   Overcast
9:35 AM 55.8 °F 49.5 °F 79% 30.11 in 10.0 mi ESE 3.5 mph - N/A   Overcast
9:55 AM 55.9 °F 49.6 °F 79% 30.10 in 10.0 mi ESE 4.6 mph - N/A   Overcast
10:15 AM 56.3 °F 50.0 °F 79% 30.10 in 10.0 mi Calm Calm - N/A   Overcast
10:35 AM 56.5 °F 50.2 °F 79% 30.10 in 10.0 mi Calm Calm - N/A   Overcast
10:55 AM 56.7 °F 50.2 °F 79% 30.09 in 10.0 mi SE 3.5 mph - N/A   Overcast
11:15 AM 56.7 °F 50.0 °F 78% 30.08 in 10.0 mi East 5.8 mph - N/A   Overcast
11:35 AM 57.2 °F 49.6 °F 76% 30.08 in 10.0 mi East 5.8 mph - N/A   Overcast
11:55 AM 57.0 °F 49.5 °F 76% 30.07 in 10.0 mi East 8.1 mph - N/A   Overcast
12:15 PM 56.8 °F 49.5 °F 76% 30.07 in 10.0 mi East 4.6 mph - N/A   Overcast
12:35 PM 56.7 °F 49.6 °F 77% 30.06 in 10.0 mi East 5.8 mph - N/A   Overcast
12:55 PM 56.5 °F 49.8 °F 78% 30.06 in 10.0 mi East 8.1 mph - N/A   Overcast
1:15 PM 56.5 °F 49.6 °F 78% 30.05 in 10.0 mi East 6.9 mph - N/A   Overcast
1:35 PM 56.8 °F 50.0 °F 78% 30.04 in 10.0 mi East 8.1 mph - N/A   Overcast
1:55 PM 57.4 °F 49.8 °F 76% 30.03 in 10.0 mi ENE 6.9 mph - N/A   Overcast
2:15 PM 58.5 °F 49.8 °F 73% 30.02 in 10.0 mi East 6.9 mph - N/A   Overcast
2:35 PM 59.0 °F 48.7 °F 69% 30.02 in 10.0 mi East 3.5 mph - N/A   Overcast
2:55 PM 59.0 °F 48.7 °F 69% 30.01 in 10.0 mi East 4.6 mph - N/A   Overcast
3:15 PM 59.9 °F 48.6 °F 66% 30.00 in 10.0 mi East 6.9 mph - N/A   Mostly Cloudy
3:35 PM 60.6 °F 48.9 °F 65% 29.99 in 10.0 mi ENE 4.6 mph - N/A   Scattered Clouds
3:55 PM 60.1 °F 48.4 °F 65% 29.99 in 7.0 mi ENE 5.8 mph - N/A   Scattered Clouds
4:15 PM 59.9 °F 47.8 °F 64% 29.98 in 10.0 mi Calm Calm - N/A   Mostly Cloudy
4:35 PM 59.7 °F 48.0 °F 65% 29.98 in 10.0 mi ESE 6.9 mph - N/A   Mostly Cloudy
4:55 PM 59.0 °F 47.7 °F 66% 29.97 in 10.0 mi East 6.9 mph - N/A   Scattered Clouds
5:15 PM 58.3 °F 47.8 °F 68% 29.97 in 10.0 mi East 6.9 mph - N/A   Clear
5:35 PM 58.1 °F 47.3 °F 67% 29.96 in 10.0 mi East 6.9 mph - N/A   Clear
5:55 PM 57.4 °F 47.7 °F 70% 29.97 in 10.0 mi Calm Calm - N/A   Scattered Clouds
6:15 PM 56.1 °F 48.2 °F 75% 29.97 in 5.0 mi Calm Calm - N/A   Haze
6:35 PM 55.0 °F 49.1 °F 80% 29.98 in 10.0 mi East 3.5 mph - N/A   Mostly Cloudy
6:55 PM 54.3 °F 48.6 °F 81% 29.96 in 10.0 mi NE 3.5 mph - N/A   Scattered Clouds
7:15 PM 53.6 °F 48.2 °F 82% 29.95 in 10.0 mi Calm Calm - N/A   Clear
7:35 PM 53.4 °F 48.7 °F 84% 29.96 in 10.0 mi Calm Calm - N/A   Scattered Clouds
7:55 PM 52.9 °F 48.4 °F 85% 29.96 in 10.0 mi Calm Calm - N/A   Scattered Clouds
8:15 PM 52.2 °F 48.9 °F 89% 29.95 in 10.0 mi Calm Calm - N/A   Clear
8:35 PM 51.1 °F 48.4 °F 90% 29.95 in 10.0 mi Calm Calm - N/A   Clear
8:55 PM 50.9 °F 48.4 °F 91% 29.95 in 10.0 mi Calm Calm - N/A   Clear
9:15 PM 49.8 °F 47.7 °F 92% 29.94 in 10.0 mi Calm Calm - N/A   Clear
9:35 PM 48.9 °F 47.3 °F 94% 29.95 in 10.0 mi Calm Calm - N/A   Clear
9:55 PM 48.2 °F 46.8 °F 95% 29.95 in 7.0 mi Calm Calm - N/A   Scattered Clouds
10:15 PM 49.1 °F 47.8 °F 95% 29.94 in 10.0 mi Calm Calm - N/A   Overcast
10:35 PM 48.6 °F 47.3 °F 95% 29.92 in 7.0 mi Calm Calm - N/A   Mostly Cloudy
10:55 PM 47.3 °F 46.0 °F 95% 29.92 in 7.0 mi Calm Calm - N/A   Scattered Clouds
11:15 PM 48.2 °F 46.9 °F 95% 29.92 in 7.0 mi Calm Calm - N/A   Mostly Cloudy
11:35 PM 48.6 °F 47.5 °F 96% 29.91 in 10.0 mi Calm Calm - N/A   Overcast
11:55 PM 49.1 °F 47.8 °F 95% 29.91 in 10.0 mi Calm Calm - N/A   Overcast